Location: Peebles
(55.6412°N, 3.1714°W)
Time: 05:31:37
(UTC+00:00)

Cosmos 968 Rocket - Visible Passes

Search period start: 25 January 2022 00:00
Search period end: 04 February 2022 00:00
Orbit: 740 x 771 km, 74.0° (Epoch: 24 January)

Date Brightness Start Highest point End Pass type
(mag) Time Alt. Az. Time Alt. Az. Time Alt. Az.
25 Jan 5.8 04:35:46 13° SSE 04:35:46 13° SSE 04:36:21 10° SSE visible
25 Jan 5.2 17:30:09 10° ESE 17:32:26 13° E 17:34:24 11° ENE visible
25 Jan 3.3 19:08:09 10° SSW 19:13:15 67° ESE 19:14:28 50° NE visible
25 Jan 5.3 20:50:57 10° WSW 20:54:31 28° WNW 20:54:31 28° WNW visible
26 Jan 3.8 18:27:47 10° S 18:32:35 42° ESE 18:35:15 24° NE visible
26 Jan 4.5 20:09:30 10° WSW 20:14:25 43° NW 20:15:18 40° NNW visible
26 Jan 6.4 21:54:34 10° WNW 21:55:21 12° NW 21:55:21 12° NW visible
27 Jan 4.5 17:47:50 10° SSE 17:52:03 26° E 17:55:56 12° NE visible
27 Jan 3.8 19:28:20 10° SW 19:33:27 66° WNW 19:35:59 30° NNE visible
27 Jan 5.8 21:12:31 10° W 21:16:01 20° NW 21:16:01 20° NW visible
28 Jan 3.4 18:47:29 10° SSW 18:52:38 82° ESE 18:56:33 18° NNE visible
28 Jan 5.3 20:30:43 10° W 20:35:03 26° NW 20:36:35 23° NNW visible
29 Jan 3.6 18:06:57 10° S 18:11:55 51° ESE 18:16:57 10° NE visible
29 Jan 4.8 19:49:09 10° WSW 19:53:55 37° NW 19:57:03 19° N visible
29 Jan 6.1 21:34:34 10° NW 21:37:05 14° NNW 21:37:05 14° NNW visible
30 Jan 4.2 17:26:47 10° SSE 17:31:19 32° ESE 17:35:54 10° NE visible
30 Jan 4.1 19:07:51 10° SW 19:12:55 54° NW 19:17:26 13° NNE visible
30 Jan 5.8 20:52:26 10° WNW 20:55:56 18° NNW 20:57:28 16° N visible
31 Jan 3.5 18:26:51 10° SSW 18:32:01 83° WNW 18:37:16 10° NNE visible
31 Jan 5.5 20:10:32 10° W 20:14:38 23° NW 20:17:46 14° N visible
31 Jan 6.4 21:56:59 10° NNW 21:57:48 11° NNW 21:57:48 11° NNW visible
01 Feb 3.5 17:46:11 10° SSW 17:51:15 64° ESE 17:56:25 10° NNE visible
01 Feb 5.1 19:28:51 10° WSW 19:33:27 32° NW 19:38:02 10° NNE visible
01 Feb 6.1 21:14:37 10° NW 21:17:01 13° NNW 21:18:03 12° N visible
02 Feb 4.5 18:47:26 10° SW 18:52:24 45° NW 18:57:26 10° NNE visible
02 Feb 6.0 20:32:24 10° WNW 20:35:34 16° NNW 20:38:14 12° N visible
03 Feb 3.8 18:06:18 10° SW 18:11:26 69° WNW 18:16:41 10° NNE visible
03 Feb 5.7 19:50:23 10° W 19:54:15 21° NW 19:58:09 10° NNE visible
03 Feb 6.3 21:37:03 10° NNW 21:38:14 11° N 21:38:25 11° N visible
